www.pogodaiklimat.ru

Погода и климат >> Архив погоды >> Россия >> Ленинградская область >> Волосово


ПОГОДА в Волосово

  • Прогноз погоды в Волосово
  • Монитор погоды в Волосово

АРХИВ ПОГОДЫ в Волосово

Время (UTC), дата Ветер
(напр.,м/с)
 
Видим.   Явления Облачность Т
(С)
Тd
(С)
f
(%)
Тe
(С)
Тes
(С)
Комфортность P
(гПа)
Po
(гПа)
Тmin
(С)
Tmax
(С)
R
(мм)
R24
(мм)
S
(см)
06 17.02 З 8-12
{13}
10 км ясно -0.2 -6.1 64 -7 -7 1003.1 987.2 -0.6 41
09 17.02 З 8-14
{16}
10 км 3/3 1000 м
[Cu hum Ci fib]
+1.2 -5.6 60 -5 -5 1005.3 989.4
12 17.02 З 9-15
{16}
10 км 4/3 1000 м
[Cu hum Ci fib]
+2.2 -7.3 49 -4 -4 1008.1 992.2
15 17.02 СЗ 6-10
{15}
10 км 3/0
[Ci fib]
+0.8 -7.6 53 -5 -5 1011.7 995.7
18 17.02 СЗ 5
{11}
10 км ясно -0.8 -12.4 41 -6 -6 1015.5 999.3 +2.4
21 17.02 СЗ 5 10 км ясно -2.8 -12.2 48 -9 -9 1018.3 1002.0
00 18.02 СЗ 3 10 км 3/0
[Ci fib]
-5.0 -12.2 57 -10 -10 1020.7 1004.2
03 18.02 С 2 10 км 3/0
[Ci fib]
-6.2 -11.8 64 -10 -10 1021.9 1005.3 -7.4
06 18.02 штиль 0 10 км 3/0
[Ci fib]
-11.0 -12.4 89 -11 -11 1024.0 1007.1 -11.6 40
09 18.02 ЮВ 1 10 км 8/0
[Ac trans Ci fib]
-6.3 -11.4 67 -8 -7 1024.4 1007.7
12 18.02 Ю 3 10 км 9/0
[Ac trans Ci fib]
-3.0 -10.3 57 -8 -7 1022.5 1006.1
15 18.02 Ю 5 10 км 9/9 930 м
[Sc diur, vesp]
-2.2 -10.7 52 -8 -8 1019.7 1003.4
18 18.02 Ю 5 10 км 9/9 900 м
[Sc diur, vesp]
-2.6 -11.0 52 -9 -9 1016.4 1000.1 -0.7
21 18.02 Ю 6 10 км 9/9 870 м
[Sc diur, vesp]
-0.7 -8.7 55 -7 -7 1012.9 996.8
00 19.02 ЮЗ 6
{11}
10 км 9/9 800 м
[Sc diur, vesp]
-0.6 -5.3 70 -7 -7 1010.5 994.4
03 19.02 ЮЗ 6
{11}
10 км 9/9 800 м
[Sc diur, vesp]
+0.6 -0.9 90 -6 -6 1008.0 992.0 -3.6
06 19.02 ЮЗ 6
{10}
10 км {ливн. осадки} 9/9 360 м
[Cb cap]
+1.0 0.0 93 -6 -6 1006.5 990.6 -2.4 0.3 40
09 19.02 ЮЗ 5
{10}
4000 м слаб. морось 10/10 360 м
[St]
+1.6 +0.7 94 -4 -4 1005.4 989.5
12 19.02 Ю 6 4000 м дымка 10/10 330 м
[St]
+1.7 +0.8 94 -5 -5 1002.7 986.9
15 19.02 Ю 7
{10}
10 км 10/10 330 м
[St]
+1.5 -0.3 88 -5 -5 999.7 983.9 0.3
18 19.02 Ю 4
{10}
10 км 10/10 400 м
[Cb cap]
+1.8 -0.1 87 -3 -3 995.9 980.2 +1.9 0.0
21 19.02 ЮЗ 6
{10}
4000 м слаб. дождь 10/10 300 м
[Frnb]
+1.2 +0.1 92 -5 -5 993.8 978.1
00 20.02 ЮЗ 5
{10}
10 км {дождь} 10/10 330 м
[Frnb]
+1.2 +0.3 94 -5 -5 993.1 977.4
03 20.02 4000 м слаб. дождь н/о +1.5 +0.6 94 -5 -5 991.5 975.9 +0.7 4
06 20.02 ЮЗ 6 4000 м слаб. дождь 10/10 300 м
[Frnb]
+1.5 +0.5 93 -5 -5 990.8 975.2 +0.7 5 39
09 20.02 З 5 10 км {дождь} 9/9 400 м
[Cb cap]
+1.6 +0.4 92 -4 -4 990.7 975.1
12 20.02 З 4 4000 м слаб. ливневой снег {дождь} 10/10 400 м
[Frnb]
+0.7 -0.3 93 -5 -5 990.9 975.2
15 20.02 СЗ 7-10
{10}
4000 м слаб. ливневой снег 10/10 420 м
[Cb cap]
-0.8 -2.4 89 -8 -8 992.8 977.0 2
18 20.02 СЗ 5
{13}
4000 м слаб. снег 10/10 400 м
[Frnb Ns]
-4.5 -7.0 83 -12 -12 997.2 981.1 +1.8 2
21 20.02 СЗ 6-10
{12}
4000 м слаб. снег {метель} 10/10 480 м
[Frnb Ns]
-5.5 -8.1 82 -13 -13 1000.1 983.9
00 21.02 С 8-13
{13}
10 км позёмок {снег} 9/9 800 м
[Sc]
-6.3 -11.1 69 -15 -15 1004.0 987.7
03 21.02 СЗ 7-12
{13}
4000 м слаб. снег {метель} 10/0
[As op]
-7.1 -9.8 81 -16 -16 1008.3 991.9 -7.3 0.9
06 21.02 СЗ 5-11
{12}
10 км позёмок {снег} 3/0
[Ac trans]
-8.5 -13.8 66 -16 -16 1012.3 995.7 -8.5 0.6 40
09 21.02 С 7-10
{11}
10 км позёмок ясно -7.4 -13.8 60 -16 -15 1015.8 999.2
12 21.02 С 7
{11}
10 км позёмок 1/0
[Ci fib]
-5.7 -15.6 46 -14 -13 1018.4 1001.9
15 21.02 С 4
{11}
10 км позёмок 1/0
[Ci fib]
-6.9 -16.1 48 -13 -13 1021.3 1004.6 0.0
18 21.02 С 4
{11}
10 км позёмок 1/0
[Ci fib]
-9.1 -15.3 61 -16 -16 1024.2 1007.4 -5.7
21 21.02 С 4 10 км {метель} 3/0
[Ci fib]
-9.9 -15.2 65 -17 -17 1026.8 1009.9
00 22.02 С 4 10 км {метель} 3/0
[Ci fib]
-10.7 -14.3 75 -18 -18 1029.3 1012.3
06 22.02 С 5 10 км 8/0
[Ci fib]
-11.2 -14.0 80 -19 -19 1034.2 1017.1 -12.0 40
09 22.02 С 4 10 км 1/0
[Ci fib]
-8.1 -12.2 72 -15 -13 1037.4 1020.4
12 22.02 С 3 10 км 1/0
[Ci fib]
-4.3 -12.2 54 -9 -8 1038.6 1021.8
15 22.02 СЗ 2 10 км 1/0
[Ci fib]
-5.5 -14.9 47 -9 -9 1039.4 1022.5
18 22.02 З 1 10 км 6/0
[Ci fib]
-10.3 -13.9 75 -13 -13 1040.2 1023.0 -4.1
21 22.02 Ю 1 10 км 8/0
[Ci fib]
-15.5 -17.4 85 -18 -18 1039.4 1021.9
00 23.02 ЮЗ 3 10 км 9/0
[Ac trans]
-10.2 -13.8 75 -16 -16 1036.7 1019.6
03 23.02 ЮЗ 5 10 км 9/0
[Ac trans]
-7.5 -12.9 65 -15 -15 1033.4 1016.5 -16.0
06 23.02 ЮЗ 7-10
{10}
4000 м слаб. ливневой снег 9/9 450 м
[Cb cap]
-5.7 -7.2 89 -14 -14 1028.8 1012.1 -16.0 1 41
09 23.02 З 6-10
{12}
4000 м слаб. ливневой снег {метель} 10/10 480 м
[Cb cap]
-3.1 -4.5 90 -11 -11 1026.4 1009.9
12 23.02 З 5
{10}
4000 м слаб. ливневой снег {метель} 10/10 480 м
[Cb cap]
-0.2 -1.1 94 -7 -7 1024.8 1008.5
15 23.02 З 4
{11}
4000 м дымка {ливн. осадки} 10/10 330 м
[St]
-0.1 -0.9 94 -6 -6 1024.4 1008.1 2
18 23.02 З 4 4000 м дымка {ливн. осадки} 10/10 330 м
[St]
+0.2 -0.6 94 -5 -5 1025.1 1008.8 +0.2 0.8
00 24.02 З 4 4000 м дымка 10/10 300 м
[St]
+0.3 -0.3 96 -5 -5 1024.0 1007.8

 

Местоположение метеостанции Волосово (Ленинградская область, Россия): широта 59.43 долгота 29.50 высота над уровнем моря 129 м.

В архиве по умолчанию представлена погода в Волосово за последнюю неделю. Архивные данные за месяц целиком и за предыдущие месяцы, начиная с января 2011 года, Вы можете получить, выбрав интересующий диапазон дат из раскрывающегося списка и нажав кнопку "Ввод!".


*Определитесь, кто Вы:
робот инопланетянин человек

Внимание! Время в таблицах - всемирное. Для получения местного времени необходимо прибавить поправку, которая равна 3 ч.

Смотрите также архив погоды в соседних городах и на ближайших метеорологических станциях:

Погода в Белогорке (Ленинградская область, Россия) (37 км)
Погода в Сосновом Бору (Ленинградская область, Россия) (47 км)
Погода в Шепелево (Ленинградская область, Россия) (48 км)
Погода в Кингисеппе (Ленинградская область, Россия) (51 км)
Погода в Ломоносове (город Санкт-Петербург, Россия) (57 км)
Погода в Кронштадте (город Санкт-Петербург, Россия) (63 км)
Погода в Лисьем Носу (город Санкт-Петербург, Россия) (71 км)
Погода в Санкт-Петербурге (город Санкт-Петербург, Россия) (75 км)
Погода в Нарве (Эстония) (78 км)
Погода в Сланцах (Ленинградская область, Россия) (88 км)

Пояснения к столбцам:

Ветер - указаны скорость ветра в м/с - средняя за 10 мин, порывы в срок и между сроками (в фигурных скобках) и направление, откуда дует ветер: С - северный, СВ - северо-восточный, В - восточный, ЮВ - юго-восточный, Ю - южный, ЮЗ - юго-западный, З - западный, СЗ - северо-западный.
Видимость - горизонтальная дальность видимости в метрах или километрах. При видимости от 1 до 10 км при отсутствии осадков обычно наблюдается дымка, при ухудшении видимости до 1 км и менее - туман. В сухую погоду видимость может ухудшаться дымом, пылью или мглою.
Явления - указаны атмосферные явления, наблюдавшиеся в срок или в последний час перед сроком; фигурными скобками обозначены явления, наблюдавшиеся между сроками (за 1-3 часа до срока); квадратными скобками обозначены град или гололедные отложения с указанием их диаметра в мм.
Облачность - указаны через наклонную черту общая и нижняя облачность в баллах и высота нижней границы облаков в метрах; квадратными скобками обозначены формы облаков: Ci - перистые, Cs - перисто-слоистые, Cc - перисто-кучевые, Ac - высококучевые, As - высокослоистые, Sc - слоисто-кучевые, Ns - слоисто-дождевые, Cu - кучевые, Cb - кучево-дождевые. Подробнее классификацию облаков см. в Атласе облаков (PDF).
T - Температура воздуха - температура, измеренная на высоте 2 м над землей.
Td - Температура точки росы - температура, при понижении до которой содержащийся в воздухе водяной пар достигнет насыщения.
f - Относительная влажность воздуха - влажноcть воздуха, измеренная на высоте 2 м над землей.
Te - Эффективная температура - температура, которую ощущает одетый по сезону человек в тени. Характеристика душности погоды. При расчете учитывается влияние влажности воздуха и скорости ветра на теплоощущения человека.
Tes - Эффективная температура на солнце - температура, которую ощущает человек, с поправкой на солнечный нагрев. Характеристика знойности погоды. Зависит от высоты солнца над горизонтом, облачности и скорости ветра. Ночью, в пасмурную погоду, а также при ветре 12 м/с и более поправка равна нулю.
P - Атмосферное давление - приведенное к уровню моря атмосферное давление.
Po - Атмосферное давление - измеренное на уровне метеостанции атмосферное давление.
Tmin - Минимальная температура - минимум температуры воздуха на высоте 2 м над землей.
Tmax - Максимальная температура - максимум температуры воздуха на высоте 2 м над землей.
R - Количество осадков - Количество выпавших осадков за период времени, мм. При наведении курсора мыши на число - период времени, за который выпало указанное количество осадков.
R24 - Количество осадков - Количество выпавших осадков за 24 часа, мм.
S - Снежный покров - Высота снежного покрова, см. При наведении курсора мыши на число - состояние снежного покрова и степень покрытия местности в баллах.